Date String (YYYY-MM-DD hh:mm:ss) UTC,Instrument flags,Ambient pressure (hPa),Sample flow (lpm),Bypass flow (lpm),Sample temperature (°C),Ambient temperature (°C),ASC tube jacket temperature (°C),LED temperature (°C),Box temperature (°C),Sample RH (%),Span deviation,Mass concentration (μg/m³),Mass concentration (μg/m³),Mass concentration (μg/m³)
DateTimeUTC,F1_M11,P_M11,Q1_M11,Q2_M11,T1_M11,T2_M11,T3_M11,T4_M11,T5_M11,U1_M11,ZSPAN_M11,X2_M11,X0_M11,X1_M11
2023-04-24 16:00:00,,0826.1,5.00,0.00,22.3,20.9,00.0,30.7,23.9,15.5,0000.7,0008.46,0014.43,0007.70
2023-04-24 16:01:00,,0826.1,5.00,0.00,22.3,20.9,00.0,30.7,23.9,15.5,0000.7,0008.48,0014.98,0007.72
2023-04-24 16:02:00,,0826.0,5.00,0.00,22.3,20.9,00.0,30.7,23.9,15.2,0000.7,0008.49,0014.94,0007.72
2023-04-24 16:03:00,,0826.0,5.00,0.00,22.3,20.9,00.0,30.7,23.9,15.4,0001.1,0008.50,0014.93,0007.74
2023-04-24 16:04:00,,0826.0,5.00,0.00,22.3,20.9,00.0,30.7,23.9,15.5,0001.4,0008.49,0014.40,0007.75
2023-04-24 16:05:00,,0826.0,5.01,0.00,22.3,21.0,00.0,30.7,23.9,15.2,0001.7,0008.54,0014.06,0007.79
2023-04-24 16:06:00,,0826.0,4.99,0.00,22.3,21.0,00.0,30.7,23.9,15.2,0001.3,0008.58,0014.00,0007.80
2023-04-24 16:07:00,,0826.0,4.99,0.00,22.3,20.9,00.0,30.7,23.9,15.5,0000.8,0008.62,0014.09,0007.83
2023-04-24 16:08:00,,0826.0,5.00,0.00,22.3,21.0,00.0,30.7,24.0,15.4,0001.2,0008.67,0014.09,0007.87
2023-04-24 16:09:00,,0826.0,5.01,0.00,22.4,21.0,00.0,30.7,24.0,15.4,0001.7,0008.68,0014.02,0007.88
2023-04-24 16:10:00,,0826.0,5.01,0.00,22.4,21.0,00.0,30.7,24.0,15.0,0001.6,0008.69,0013.77,0007.88
2023-04-24 16:11:00,,0826.0,5.01,0.00,22.4,21.0,00.0,30.7,24.0,15.1,0001.9,0008.70,0013.41,0007.90
2023-04-24 16:12:00,,0826.0,4.99,0.00,22.4,21.0,00.0,30.7,24.0,15.5,0001.8,0008.71,0012.79,0007.92
2023-04-24 16:13:00,,0826.0,4.99,0.00,22.4,21.0,00.0,30.7,24.0,15.4,0001.6,0008.73,0012.76,0007.95
2023-04-24 16:14:00,,0826.0,5.00,0.00,22.4,21.1,00.0,30.7,24.0,16.0,0001.4,0008.76,0012.73,0007.99
2023-04-24 16:15:00,,0826.0,5.00,0.00,22.4,21.1,00.0,30.7,24.0,16.2,0001.2,0008.77,0012.69,0008.03
2023-04-24 16:16:00,,0826.0,5.00,0.00,22.4,21.1,00.0,30.7,24.0,15.6,0000.6,0008.79,0013.37,0008.05
2023-04-24 16:17:00,,0825.9,5.01,0.00,22.4,21.1,00.0,30.8,24.0,15.5,0001.5,0008.81,0014.29,0008.07
2023-04-24 16:18:00,,0825.9,5.00,0.00,22.4,21.1,00.0,30.8,24.1,15.7,0001.5,0008.85,0014.27,0008.10
2023-04-24 16:19:00,,0825.9,5.00,0.00,22.4,21.1,00.0,30.8,24.1,15.8,0000.7,0008.85,0014.27,0008.11
2023-04-24 16:20:00,,0825.9,4.99,0.00,22.4,21.1,00.0,30.8,24.1,15.7,0000.5,0008.90,0014.71,0008.15
2023-04-24 16:21:00,,0825.9,4.99,0.00,22.4,21.0,00.0,30.8,24.0,16.0,0000.6,0008.99,0014.78,0008.21
2023-04-24 16:22:00,,0825.8,4.99,0.00,22.4,21.0,00.0,30.8,24.0,16.0,0000.4,0009.07,0015.02,0008.26
2023-04-24 16:23:00,,0825.9,4.99,0.00,22.4,21.0,00.0,30.8,24.0,16.0,0000.1,0009.14,0015.17,0008.31
2023-04-24 16:24:00,,0825.9,5.01,0.00,22.4,21.0,00.0,30.8,24.0,16.0,0000.8,0009.20,0015.35,0008.36
2023-04-24 16:25:00,,0825.9,5.00,0.00,22.4,21.0,00.0,30.8,24.0,16.2,0001.1,0009.25,0016.17,0008.40
2023-04-24 16:26:00,,0825.9,5.00,0.00,22.4,21.0,00.0,30.8,24.0,16.3,0001.3,0009.28,0016.42,0008.42
2023-04-24 16:27:00,,0825.9,5.00,0.00,22.4,21.0,00.0,30.8,24.0,16.3,0001.9,0009.30,0015.94,0008.44
2023-04-24 16:28:00,,0825.9,5.00,0.00,22.4,21.0,00.0,30.8,24.0,16.1,0002.2,0009.35,0014.93,0008.47
2023-04-24 16:29:00,,0825.9,5.00,0.00,22.4,21.0,00.0,30.8,24.0,16.5,0002.4,0009.40,0015.02,0008.50
2023-04-24 16:30:00,,0825.9,5.01,0.00,22.5,21.0,00.0,30.8,24.0,16.5,0002.9,0009.48,0015.15,0008.54
2023-04-24 16:31:00,,0825.9,5.00,0.00,22.5,21.0,00.0,30.8,24.1,16.6,0003.3,0009.54,0015.33,0008.58
2023-04-24 16:32:00,,0825.9,5.00,0.00,22.5,21.1,00.0,30.8,24.1,16.7,0003.3,0009.55,0015.49,0008.59
2023-04-24 16:33:00,,0825.9,4.99,0.00,22.5,21.1,00.0,30.8,24.1,16.8,0003.9,0009.53,0015.55,0008.58
2023-04-24 16:34:00,,0825.9,4.99,0.00,22.5,21.1,00.0,30.8,24.1,16.4,0004.1,0009.47,0015.38,0008.57
2023-04-24 16:35:00,,0825.9,4.99,0.00,22.5,21.1,00.0,30.8,24.1,16.3,0004.0,0009.51,0015.46,0008.56
2023-04-24 16:36:00,,0825.9,5.00,0.00,22.5,21.1,00.0,30.8,24.1,16.4,0003.7,0009.48,0015.04,0008.55
2023-04-24 16:37:00,,0825.9,5.00,0.00,22.5,21.1,00.0,30.8,24.1,16.6,0003.4,0009.49,0014.55,0008.55
2023-04-24 16:38:00,,0825.9,5.00,0.00,22.5,21.1,00.0,30.8,24.1,16.6,0003.1,0009.53,0014.66,0008.58
2023-04-24 16:39:00,,0825.9,5.01,0.00,22.5,21.1,00.0,30.8,24.1,16.6,0002.2,0009.56,0014.75,0008.60
2023-04-24 16:40:00,,0825.8,5.00,0.00,22.5,21.1,00.0,30.8,24.1,16.5,0001.8,0009.51,0014.65,0008.60
2023-04-24 16:41:00,,0825.8,4.99,0.00,22.5,21.2,00.0,30.9,24.1,16.8,0001.4,0009.49,0014.62,0008.60
2023-04-24 16:42:00,,0825.8,4.99,0.00,22.5,21.2,00.0,30.9,24.1,17.0,0001.4,0009.47,0014.32,0008.59
2023-04-24 16:43:00,,0825.8,5.01,0.00,22.5,21.2,00.0,30.9,24.2,16.9,0001.3,0009.44,0014.19,0008.57
2023-04-24 16:44:00,,0825.8,5.01,0.00,22.6,21.2,00.0,30.9,24.2,16.8,0001.2,0009.46,0014.75,0008.59
2023-04-24 16:45:00,,0825.8,5.00,0.00,22.6,21.3,00.0,30.9,24.2,16.9,0001.3,0009.51,0014.98,0008.61
2023-04-24 16:46:00,,0825.8,4.99,0.00,22.6,21.3,00.0,30.9,24.2,17.1,0000.8,0009.50,0015.24,0008.62
2023-04-24 16:47:00,,0825.8,5.00,0.00,22.6,21.3,00.0,30.9,24.2,16.8,0000.8,0009.53,0015.56,0008.63
2023-04-24 16:48:00,,0825.8,5.01,0.00,22.6,21.4,00.0,30.9,24.3,17.0,0001.2,0009.56,0015.87,0008.64
2023-04-24 16:49:00,,0825.7,5.01,0.00,22.7,21.4,00.0,30.9,24.3,17.3,0001.3,0009.60,0015.89,0008.65
2023-04-24 16:50:00,,0825.8,4.99,0.00,22.7,21.4,00.0,30.9,24.3,17.2,0000.9,0009.62,0015.95,0008.65
2023-04-24 16:51:00,,0825.8,4.99,0.00,22.7,21.5,00.0,31.0,24.3,17.1,0001.2,0009.66,0016.37,0008.65
2023-04-24 16:52:00,,0825.8,5.00,0.00,22.7,21.5,00.0,31.0,24.4,16.5,0001.6,0009.65,0016.46,0008.64
2023-04-24 16:53:00,,0825.7,5.00,0.00,22.7,21.5,00.0,31.0,24.4,16.6,0001.4,0009.67,0016.78,0008.65
2023-04-24 16:54:00,,0825.8,5.00,0.00,22.7,21.5,00.0,31.0,24.4,16.9,0001.7,0009.70,0017.06,0008.67
2023-04-24 16:55:00,,0825.7,5.01,0.00,22.8,21.5,00.0,31.0,24.4,17.0,0001.8,0009.74,0016.51,0008.67
2023-04-24 16:56:00,,0825.7,5.00,0.00,22.8,21.5,00.0,31.0,24.4,16.9,0001.5,0009.75,0016.45,0008.66
2023-04-24 16:57:00,,0825.7,5.01,0.00,22.8,21.6,00.0,31.0,24.4,17.0,0002.1,0009.76,0016.17,0008.66
2023-04-24 16:58:00,,0825.6,5.00,0.00,22.8,21.6,00.0,31.1,24.5,16.7,0002.0,0009.73,0016.13,0008.65
2023-04-24 16:59:00,,0825.6,5.00,0.00,22.8,21.6,00.0,31.1,24.5,16.6,0002.1,0009.72,0016.20,0008.65
